Powrót do katalogu

STARLINK-11188

AktywnyŁącznośćVLEO
NORAD 60722·PAYLOAD·🇺🇸 United States

Wystrzelony Aug 28, 2024 z Cape Canaveral Space Force Station

Loading…

Następne Przeloty (najbliższe 24 godziny)

TLE

ŚwieżeSource: CelesTrak SupGP

Epoka: Sep 14, 2026, 13:55 UTC

1 60722C 24152C   26257.58034722  .00034496  00000+0  28428-3 0  2573
2 60722  53.1568 265.2972 0001035  80.6710 139.2533 15.69681123    10

Śledź STARLINK-11188 w czasie rzeczywistym z AllMySat

Download on the App Store